Presure
136 125 112 129 133 125 129 143 151 147 132 156 139 161 141 141 141 139 177 162 151 155 153 155 162 149 160 174 165 165 158 167 164 211 170 160 148 104 89 148 87 85 86 87 90 99 93 146 93
125 127 128 132 129 125 146 142 151 138 145 147 132 144 160 144 128 156 165 164 156 167 162 153 153 150 152 155 156 169 162 159 152 152 151 88 124 92 89 86 85 88 88 88 89 89 90 92 91
126 125 131 129 141 105 146 145 142 128 154 132 135 155 149 142 145 142 164 171 163 152 170 154 154 153 152 150 163 159 158 158 152 153 132 153 91 92 91 83 85 86 89 137 94 90 149 94 93
125 143 113 137 134 140 145 154 126 142 162 132 153 174 151 137 145 152 133 177 176 158 164 158 162 156 162 161 152 160 159 161 151 84 159 88 94 145 90 86 89 88 90 93 92 163 88 88 201
118 117 110 146 136 122 144 155 119 133 164 148 154 158 165 137 140 149 167 140 156 164 155 101 163 156 154 104 163 160 160 158 164 142 162 85 102 100 86 91 102 156 149 89 106 165 171 181 126
122 135 142 146 159 157 141 149 109 138 153 145 153 141 168 139 141 148 160 154 153 159 168 155 161 161 163 161 170 159 170 151 111 159 163 129 161 130 153 137 90 91 142 123 123 154 149 150 168
135 139 146 155 106 138 145 167 148 145 139 156 160 174 179 137 136 148 154 158 140 158 160 169 157 155 165 161 167 159 166 153 163 172 146 166 160 156 148 106 160 153 156 137 148 156 161 151 158
142 102 146 167 136 145 132 154 131 149 164 157 165 174 187 135 134 146 152 162 171 152 164 166 156 154 167 145 163 161 159 151 151 150 154 156 163 156 151 137 148 151 163 158 145 139 155 162 151
97 137 126 139 156 144 150 168 149 118 155 152 160 176 178 159 136 144 150 155 161 171 153 178 171 162 164 160 160 164 154 153 158 147 160 149 146 156 159 151 149 154 154 144 153 167 170 153 144
136 142 151 149 151 150 147 158 134 212 178 159 165 170 169 156 164 144 148 162 161 178 171 159 162 161 154 161 152 154 161 153 153 147 153 154 158 152 147 152 151 151 152 149 160 161 167 164 146
140 142 150 143 151 162 141 164 207 134 140 167 137 168 146 157 140 143 138 158 164 144 184 165 177 180 188 170 170 166 163 158 156 158 154 162 156 159 159 148 142 158 143 146 150 146 171 157 155
169 140 144 149 155 160 170 182 168 221 141 168 179 176 175 164 140 155 148 159 176 181 143 154 153 166 172 164 175 165 165 166 155 154 147 153 158 154 157 160 161 155 155 153 147 164 153 180 170
143 157 141 150 156 154 168 185 156 151 233 170 169 176 142 148 155 144 158 167 148 177 168 160 160 177 166 162 170 178 167 158 169 164 153 144 149 150 162 155 149 170 148 147 148 150 140 141 129
146 151 140 155 135 152 181 165 238 215 140 216 139 140 149 153 158 151 152 171 164 183 126 160 173 169 188 178 164 179 172 170 157 168 165 164 141 147 141 159 164 157 163 151 144 144 139 153 149
168 99 139 144 160 155 170 159 143 161 142 142 152 145 150 147 177 145 141 152 161 168 163 148 154 179 188 163 164 171 183 176 170 162 163 150 151 153 137 135 159 164 171 159 152 150 137 147 155
163 142 148 143 158 158 148 143 138 148 194 161 174 156 145 146 136 144 140 152 159 165 188 213 210 158 179 183 161 167 186 173 166 164 169 158 157 158 142 159 166 155 158 145 148 145 153 150 133
164 140 146 144 147 166 155 161 168 155 124 149 149 144 143 144 153 159 149 147 159 159 194 194 220 152 170 193 160 169 164 162 166 163 165 170 153 158 142 155 148 155 155 153 157 150 145 142 144
157 150 148 152 143 141 137 161 164 155 117 150 142 140 142 150 143 180 149 152 158 168 174 224 211 168 150 175 185 164 171 161 172 179 162 166 169 144 156 173 150 147 156 153 138 150 144 139 141
154 136 147 146 144 145 148 149 150 156 150 151 147 143 154 155 152 169 150 150 127 161 199 178 221 228 159 159 200 171 169 160 165 149 164 174 156 169 158 161 160 157 166 150 148 157 163 141 132
153 139 153 150 140 164 139 154 132 148 147 140 149 157 152 128 154 165 125 150 126 148 160 132 185 230 209 155 160 180 188 156 162 163 164 150 176 177 175 159 154 158 152 147 157 147 142 144 135
159 128 142 157 134 172 188 176 166 136 144 152 157 162 153 154 152 162 170 126 134 143 144 134 133 211 233 207 171 159 170 169 158 163 168 164 157 151 150 154 146 162 160 151 153 144 155 149 160
158 145 148 154 168 170 189 161 155 175 131 164 159 152 153 158 153 161 161 142 149 137 137 119 140 134 135 138 147 173 160 158 171 162 158 164 165 166 150 147 146 142 164 158 147 160 149 148 147
152 166 176 157 165 172 185 173 121 170 180 159 144 146 156 158 155 156 167 170 138 139 133 124 132 129 131 132 133 141 183 172 160 166 171 156 156 162 166 156 158 160 155 158 144 166 135 147 152
137 161 150 165 163 136 177 158 117 138 148 184 163 132 164 162 167 167 166 168 162 131 141 132 134 134 126 139 133 137 142 139 166 155 154 165 163 167 154 162 157 156 148 147 159 143 140 146 144
153 167 177 154 164 170 125 167 122 169 181 162 159 169 170 160 164 170 171 165 164 167 141 137 131 125 126 133 134 129 133 143 132 142 141 138 154 160 165 164 167 149 151 146 159 133 141 145 144
110 236 169 178 167 166 172 185 190 114 177 160 180 168 158 112 153 179 170 172 172 168 169 148 136 121 132 130 127 140 138 127 125 132 143 142 168 171 164 164 154 162 170 154 145 164 151 143 129
181 242 178 176 167 171 163 180 173 162 162 180 165 146 153 174 112 212 159 244 174 178 169 179 142 122 133 137 126 127 148 141 130 126 134 139 137 149 153 167 163 157 134 159 174 160 137 149 145
178 231 180 171 168 176 116 176 187 154 177 181 184 182 106 226 171 165 162 219 198 190 165 174 177 144 142 138 133 125 138 145 140 138 134 140 143 141 146 150 176 120 178 167 165 168 149 155 151
219 178 191 187 175 182 147 176 173 165 176 175 172 151 201 182 164 189 218 233 201 177 209 165 165 175 170 142 138 137 126 148 145 141 136 131 129 139 140 146 153 155 186 183 162 179 161 155 146
179 189 230 215 164 185 169 166 177 191 166 173 167 142 189 160 158 217 213 215 172 223 213 218 165 166 173 174 164 140 148 143 150 144 147 113 131 127 127 142 155 150 166 153 168 174 172 130 122
Wind_Speed
38 34 21 39 37 29 28 38 36 33 30 31 33 30 31 35 35 31 16 19 26 23 20 17 16 24 21 18 20 23 25 29 28 31 29 25 21 26 27 18 26 22 21 21 21 18 19 5 19
31 35 38 38 29 27 41 36 35 28 30 28 30 32 27 31 31 25 20 19 22 16 14 19 16 21 22 21 20 23 25 25 25 26 28 24 23 26 25 22 20 19 18 18 17 17 16 17 19
30 32 34 26 36 18 37 35 29 25 31 26 29 27 26 28 27 27 20 16 20 23 13 17 16 17 18 20 19 22 22 23 21 21 20 20 20 20 21 20 17 17 14 5 15 16 6 17 18
32 40 19 31 31 32 34 33 22 29 26 25 29 21 24 25 25 25 26 14 13 20 18 14 12 16 15 15 19 19 21 21 24 16 16 18 17 16 15 12 12 12 14 14 15 9 19 19 15
27 38 12 37 28 20 29 31 20 21 24 26 26 22 19 22 24 24 19 25 23 17 20 19 12 17 19 17 16 18 18 20 18 15 19 12 14 12 13 10 12 12 10 15 12 14 23 29 12
16 22 29 32 39 37 28 29 19 21 23 23 23 22 16 19 23 23 21 20 24 19 13 17 15 14 13 15 15 17 18 18 8 20 16 10 14 12 15 14 12 11 13 11 10 10 13 16 18
26 30 36 41 10 26 29 27 24 20 19 22 19 15 10 19 22 21 21 19 23 19 19 13 16 16 11 14 14 18 19 20 22 20 18 16 13 14 13 2 11 10 9 15 7 7 14 15 17
31 14 37 36 32 27 19 25 15 20 19 19 17 15 11 18 20 20 19 17 13 19 16 15 14 16 11 18 13 17 20 21 20 17 20 21 15 14 15 11 15 12 13 9 17 20 11 7 16
11 26 17 22 30 25 24 28 21 17 16 16 17 12 10 15 19 20 18 17 16 10 19 6 9 12 13 13 13 14 19 17 18 18 18 17 19 15 13 13 11 9 9 15 12 10 11 13 16
25 28 32 26 28 25 21 24 14 19 15 17 14 9 10 15 13 18 17 14 14 6 11 17 13 12 16 11 13 12 15 16 15 16 16 17 14 17 12 13 12 12 11 11 9 15 10 11 13
26 26 29 23 27 30 16 24 24 16 15 13 15 9 15 13 15 16 19 15 12 19 4 14 3 4 7 10 9 11 13 13 14 13 13 15 14 16 12 13 15 8 13 14 16 19 13 14 13
46 21 22 27 27 27 26 27 20 15 13 10 7 7 7 9 15 14 16 14 8 4 18 11 13 9 6 13 10 11 13 16 12 11 14 15 16 16 13 11 7 6 9 11 15 14 14 10 13
27 32 19 26 25 19 25 25 12 8 10 10 8 5 13 14 13 14 13 9 13 5 7 9 9 8 10 11 10 12 12 11 14 12 11 14 15 15 13 14 13 11 13 12 14 16 19 16 22
27 27 15 26 8 18 29 24 16 11 11 8 13 12 12 11 11 13 13 10 10 4 18 11 5 10 9 7 13 11 13 14 12 14 12 12 13 12 15 13 11 12 12 10 14 17 19 15 16
30 8 12 16 22 17 19 20 10 10 8 10 6 11 10 11 6 12 16 13 11 7 7 11 9 6 9 15 12 11 14 15 15 13 13 14 10 9 13 15 10 13 15 14 14 14 16 14 15
29 17 20 14 19 16 6 4 6 7 7 8 1 6 9 10 11 11 13 12 11 7 2 4 6 7 8 11 13 12 10 14 13 14 15 15 15 12 8 2 9 12 14 14 13 12 9 14 20
26 13 18 11 13 14 8 10 11 9 7 5 5 7 8 8 9 7 8 11 9 7 3 3 6 10 9 12 11 12 14 12 13 13 14 16 12 14 12 5 9 12 15 13 9 9 13 12 13
25 21 18 17 8 2 6 9 9 8 6 6 5 5 5 6 7 5 6 6 7 4 4 6 6 5 10 10 13 13 14 13 15 16 12 14 16 14 10 12 9 12 14 14 14 4 10 14 11
24 10 16 14 9 9 6 5 6 7 7 8 6 6 4 5 5 5 4 5 8 7 2 3 9 13 7 8 15 9 13 12 15 11 12 18 12 18 11 11 6 7 16 8 11 8 4 8 14
24 14 23 18 10 14 3 4 11 10 8 9 9 7 5 1 5 5 6 3 6 7 9 10 3 11 14 8 8 13 14 7 9 14 13 8 16 18 16 10 7 6 6 8 9 7 6 6 10
26 9 17 24 11 16 21 14 8 12 13 11 10 10 6 6 5 5 5 3 5 4 6 8 10 6 14 15 9 8 7 13 6 11 15 11 9 8 11 9 7 9 9 6 5 6 6 1 4
27 22 25 24 23 18 21 13 11 13 9 12 11 12 8 8 7 8 7 5 4 4 4 6 8 10 12 13 12 11 7 7 14 10 7 14 11 12 5 6 7 7 10 6 4 5 4 2 1
28 29 28 27 26 21 22 15 9 14 15 13 12 12 12 9 8 9 9 9 5 5 3 2 3 8 7 9 12 12 14 14 7 12 18 3 5 11 13 6 8 8 5 5 5 8 13 4 4
23 31 28 30 27 15 23 12 12 12 12 15 14 4 15 12 11 10 10 10 11 5 5 4 2 3 7 5 9 10 10 12 10 7 7 13 12 15 2 11 7 5 1 2 5 8 9 4 9
31 33 32 28 28 28 12 19 17 18 16 16 14 15 17 15 13 13 14 12 13 13 10 8 6 2 4 3 3 7 9 7 13 11 13 16 7 4 13 12 16 3 3 1 2 10 5 8 9
10 34 32 30 30 29 29 26 22 11 20 19 19 19 18 7 12 17 15 15 15 14 16 14 9 3 4 3 1 1 6 9 10 11 10 12 5 14 10 14 4 12 17 11 8 14 12 8 15
35 35 33 33 32 31 29 30 19 26 22 21 22 20 19 20 4 17 15 15 17 17 17 18 14 6 8 7 4 2 3 6 7 8 8 9 13 11 8 6 7 9 9 13 23 20 8 11 9
36 38 36 36 35 34 14 31 28 31 30 26 24 22 5 20 24 22 18 18 19 18 18 19 19 16 13 10 7 3 5 4 5 6 6 6 7 10 12 10 8 11 19 14 19 22 11 21 19
41 37 39 36 37 36 28 33 30 33 29 29 28 19 24 24 25 24 19 18 22 18 20 20 19 19 18 14 11 10 5 7 4 4 7 7 3 4 6 7 7 5 18 18 12 28 16 19 13
35 39 42 42 39 38 38 38 34 35 30 31 30 20 25 27 26 23 23 22 24 22 23 19 20 18 18 18 16 12 11 8 7 5 5 5 5 2 2 2 2 0 6 7 13 17 22 8 7
Wind_Direction
11 33 35 20 17 33 25 12 11 11 25 18 29 26 35 36 36 36 41 48 44 39 45 50 56 49 53 71 74 81 79 86 87 95 120 112 102 105 106 97 102 91 88 82 76 74 71 18 68
19 22 24 18 20 24 5 13 12 17 17 25 36 25 30 33 44 28 36 44 49 53 51 49 54 51 55 57 53 81 79 81 81 86 96 102 106 115 110 99 93 95 89 85 82 74 67 60 56
14 20 13 17 11 51 3 10 18 38 13 37 35 20 26 35 36 34 37 48 59 52 70 44 41 43 48 51 57 69 69 80 84 81 84 92 100 106 104 72 85 76 83 96 74 62 52 43 38
18 5 61 6 22 9 8 5 29 19 5 33 17 16 24 39 36 30 36 51 71 58 57 53 49 39 46 50 49 60 62 73 74 60 97 68 109 85 107 70 77 69 58 57 51 71 47 41 81
51 55 59 354 25 36 13 7 52 25 4 15 16 15 24 36 38 37 35 36 47 59 60 95 55 45 44 90 66 68 69 71 81 84 91 76 70 78 66 77 67 94 62 44 42 77 84 93 50
33 19 356 356 356 1 13 11 63 23 9 12 18 30 18 33 40 34 29 41 48 47 66 60 60 53 56 52 78 75 83 70 116 79 90 89 70 80 90 76 50 33 93 56 39 78 68 70 94
2 5 1 356 72 18 7 360 12 15 15 2 7 4 11 35 42 36 28 31 42 46 46 63 63 66 63 59 72 83 85 74 81 99 62 88 80 68 86 87 99 83 92 58 53 69 74 69 70
352 83 358 8 357 1 25 358 14 13 1 359 1 357 15 38 39 40 32 27 26 45 50 43 44 66 71 67 74 92 90 76 75 65 77 74 97 80 79 63 74 60 121 105 48 51 22 87 52
86 7 14 22 349 6 4 354 11 55 9 9 5 358 7 30 35 42 36 30 34 29 53 54 57 66 65 76 75 99 92 85 93 77 92 79 82 85 90 89 75 53 42 60 21 43 75 66 50
357 354 350 360 359 3 355 360 346 350 4 1 353 4 8 35 36 44 40 42 31 8 56 68 54 49 75 93 72 77 109 98 96 81 83 100 98 96 88 84 84 78 63 60 33 39 56 47 56
352 357 349 14 2 350 351 359 347 3 5 352 31 346 36 29 42 49 46 36 29 49 91 71 115 114 149 100 128 137 138 116 115 114 93 115 97 108 114 88 73 75 72 69 66 57 73 64 69
335 4 356 353 353 350 353 352 2 348 4 356 334 325 325 31 47 46 44 30 12 30 49 47 77 86 75 95 124 138 135 152 124 118 101 94 105 102 102 111 108 80 91 85 71 69 63 69 74
340 332 12 349 349 4 357 351 17 354 344 3 24 360 45 40 27 41 32 11 47 29 50 50 74 121 91 96 114 153 145 117 153 156 114 100 95 96 112 103 90 104 97 89 91 93 67 60 73
333 334 17 344 14 16 354 359 340 346 16 341 16 27 31 32 16 41 39 49 24 26 55 61 71 96 188 136 109 138 146 150 110 148 143 133 100 92 83 102 105 109 133 105 86 82 75 84 70
320 103 10 1 344 11 8 21 348 353 356 10 347 14 11 33 351 43 48 36 40 19 23 39 45 95 165 119 119 120 150 156 149 144 142 131 116 118 69 71 97 119 116 114 99 101 68 60 86
315 343 340 357 341 354 33 314 296 333 339 352 351 352 5 14 40 33 46 39 43 30 28 178 160 79 119 147 121 126 139 144 150 144 161 149 139 158 79 145 144 106 113 97 90 87 103 78 68
307 338 334 352 350 335 360 352 346 333 26 325 6 26 1 350 352 21 32 44 44 41 74 162 164 60 108 175 125 134 138 125 129 135 150 169 143 147 97 174 82 98 111 105 110 92 100 76 68
302 311 320 321 342 14 344 350 340 334 39 306 351 28 355 324 349 345 22 40 53 40 57 186 190 136 75 131 157 136 143 138 148 159 151 159 166 85 162 181 112 91 114 114 89 160 107 83 75
297 319 311 316 320 315 344 347 318 309 294 300 318 337 314 319 313 319 6 51 46 78 74 70 199 184 109 102 191 143 153 137 145 93 143 169 135 177 167 168 147 141 143 115 135 222 163 89 66
291 300 298 301 304 321 349 323 287 289 286 295 290 295 296 10 307 305 95 360 65 86 93 67 124 183 191 96 110 150 170 123 142 145 155 107 170 185 184 164 138 174 104 91 114 126 77 85 64
283 295 296 294 292 300 303 299 287 273 284 285 283 275 275 280 278 276 264 88 76 94 98 74 70 186 190 191 162 121 145 154 137 150 159 158 146 110 109 135 91 172 177 126 119 81 156 168 232
280 287 290 293 292 289 300 283 271 280 279 259 262 270 271 253 265 265 238 243 211 122 118 56 83 73 70 58 62 175 133 117 164 162 142 164 181 176 93 80 69 27 173 158 83 189 154 119 335
281 281 283 288 289 287 294 282 263 271 271 251 262 269 266 257 251 259 253 249 231 173 158 60 73 91 68 76 64 49 175 170 136 174 172 146 153 192 187 187 183 195 161 192 24 202 35 354 301
273 277 283 281 281 261 282 265 241 271 257 266 254 222 265 265 257 248 248 242 244 204 200 186 173 113 82 96 77 61 60 62 152 117 109 191 195 198 213 193 205 229 15 354 212 357 350 328 315
272 273 277 277 276 276 241 271 219 268 261 258 252 249 251 259 258 253 249 237 236 242 234 198 188 157 105 80 59 73 74 54 53 55 64 63 96 183 214 214 203 350 272 69 231 42 304 278 281
239 272 268 269 266 267 271 275 273 243 262 260 262 254 251 250 242 256 245 247 240 239 242 233 209 176 215 173 113 140 117 89 75 53 53 58 162 200 215 219 314 217 211 223 272 221 229 266 62
270 268 266 263 266 264 267 271 261 264 259 261 252 260 257 258 226 266 243 252 246 243 240 242 226 195 222 213 174 133 184 137 107 76 51 64 77 56 43 209 221 221 58 224 218 227 44 278 313
269 264 265 263 264 262 250 262 267 260 263 262 261 256 229 268 258 261 256 249 245 246 244 246 240 228 228 226 223 219 229 235 144 125 106 70 55 67 65 58 239 53 218 230 229 235 264 253 269
267 264 264 263 261 261 262 260 259 255 256 258 253 246 262 254 252 258 254 250 247 242 244 238 242 245 239 228 226 232 234 232 230 167 145 138 130 77 72 70 48 36 233 234 241 236 241 251 247
266 266 264 263 261 260 260 259 258 259 254 256 256 235 260 248 252 256 257 249 247 240 242 241 241 241 249 252 245 230 241 236 225 231 241 240 173 220 297 72 79 104 282 299 259 249 242 342 344